TimeMST,TemperatureF,Dew PointF,Humidity,Sea Level PressureIn,VisibilityMPH,Wind Direction,Wind SpeedMPH,Gust SpeedMPH,PrecipitationIn,Events,Conditions,WindDirDegrees,DateUTC
12:14 AM,8.6,3.2,79,29.82,2.5,NNW,16.1,-,0.00,Snow,Light Snow,330,2013-12-04 07:14:00
12:38 AM,8.6,3.2,79,29.81,1.8,NW,17.3,24.2,0.00,Snow,Light Snow,320,2013-12-04 07:38:00
12:53 AM,8.1,3.0,80,29.98,2.0,NNW,16.1,23.0,0.00,Snow,Light Snow,330,2013-12-04 07:53:00
1:53 AM,7.0,3.0,84,29.99,2.0,NNW,15.0,20.7,0.00,Snow,Light Snow,330,2013-12-04 08:53:00
2:35 AM,6.8,1.4,79,29.81,1.8,NW,17.3,23.0,0.00,Snow,Light Snow,320,2013-12-04 09:35:00
2:53 AM,7.0,1.9,80,30.00,1.2,NW,16.1,24.2,0.00,Snow,Light Snow,320,2013-12-04 09:53:00
3:15 AM,6.8,1.4,79,29.79,1.2,NNW,17.3,24.2,0.00,Snow,Light Snow,340,2013-12-04 10:15:00
3:35 AM,6.8,1.4,79,29.80,1.0,NW,16.1,23.0,0.00,Snow,Light Snow,320,2013-12-04 10:35:00
3:48 AM,6.8,1.4,79,29.81,1.0,NW,18.4,-,0.00,Snow,Light Snow,320,2013-12-04 10:48:00
3:53 AM,6.1,1.0,80,30.00,1.0,NW,18.4,24.2,0.00,Snow,Light Snow,310,2013-12-04 10:53:00
4:01 AM,6.8,1.4,79,29.81,1.0,NW,18.4,27.6,0.00,Snow,Light Snow,320,2013-12-04 11:01:00
4:37 AM,5.0,1.4,85,29.81,1.0,NW,15.0,-,0.00,Snow,Light Snow,320,2013-12-04 11:37:00
4:53 AM,5.0,1.0,84,30.01,1.0,NW,25.3,29.9,0.01,Snow,Light Snow,320,2013-12-04 11:53:00
5:05 AM,5.0,-0.4,78,29.78,1.0,NW,20.7,31.1,0.00,Snow,Light Snow,320,2013-12-04 12:05:00
5:53 AM,3.9,-0.9,80,29.99,2.0,NW,20.7,28.8,0.00,Snow,Light Snow,320,2013-12-04 12:53:00
6:09 AM,5.0,-0.4,78,29.79,1.8,NW,20.7,-,0.00,Snow,Light Snow,320,2013-12-04 13:09:00
6:53 AM,3.9,-0.9,80,30.05,1.5,NW,21.9,29.9,0.00,Snow,Light Snow,310,2013-12-04 13:53:00
7:53 AM,3.9,-2.0,76,30.05,1.2,NW,20.7,31.1,0.00,Snow,Light Snow,320,2013-12-04 14:53:00
8:51 AM,3.2,-0.4,85,29.86,2.5,NW,19.6,25.3,0.00,Snow,Light Snow,320,2013-12-04 15:51:00
8:53 AM,3.9,-2.0,76,30.09,2.5,NW,19.6,25.3,0.00,Snow,Light Snow,320,2013-12-04 15:53:00
9:23 AM,5.0,-2.2,72,29.85,4.0,NW,15.0,25.3,0.00,,Overcast,320,2013-12-04 16:23:00
9:53 AM,3.9,-2.0,76,30.09,3.0,NW,16.1,29.9,0.00,,Haze,320,2013-12-04 16:53:00
10:12 AM,3.2,-2.2,78,29.87,2.5,NW,20.7,28.8,0.00,,Overcast,320,2013-12-04 17:12:00
10:18 AM,3.2,-2.2,78,29.88,3.0,NW,21.9,31.1,0.00,,Overcast,320,2013-12-04 17:18:00
10:27 AM,3.2,-2.2,78,29.90,2.5,NW,25.3,36.8,0.00,,Overcast,320,2013-12-04 17:27:00
10:43 AM,3.2,-2.2,78,29.87,1.5,NW,26.5,35.7,0.00,,Overcast,320,2013-12-04 17:43:00
10:53 AM,3.9,-2.9,73,30.10,1.8,NW,20.7,35.7,0.00,,Overcast,320,2013-12-04 17:53:00
11:01 AM,3.2,-2.2,78,29.89,2.5,NW,20.7,34.5,0.00,,Overcast,320,2013-12-04 18:01:00
11:13 AM,3.2,-2.2,78,29.90,1.0,NW,25.3,34.5,0.00,Snow,Light Snow,320,2013-12-04 18:13:00
11:53 AM,3.9,-2.0,76,30.12,1.0,NW,24.2,33.4,0.00,Snow,Light Snow,320,2013-12-04 18:53:00
12:03 PM,3.2,-2.2,78,29.88,0.8,NW,24.2,32.2,0.00,Snow,Light Snow,320,2013-12-04 19:03:00
12:12 PM,3.2,-2.2,78,29.86,1.0,NNW,26.5,35.7,0.00,Snow,Light Snow,330,2013-12-04 19:12:00
12:36 PM,5.0,-2.2,72,29.89,2.0,NW,21.9,31.1,0.00,,Overcast,310,2013-12-04 19:36:00
12:53 PM,5.0,-2.9,70,30.10,2.5,NW,24.2,34.5,0.00,,Overcast,320,2013-12-04 19:53:00
1:02 PM,5.0,-4.0,66,29.88,2.0,NW,26.5,36.8,0.00,,Overcast,320,2013-12-04 20:02:00
1:09 PM,5.0,-4.0,66,29.88,2.5,NW,21.9,36.8,0.00,,Overcast,320,2013-12-04 20:09:00
1:20 PM,5.0,-4.0,66,29.91,3.0,NW,25.3,36.8,0.00,,Overcast,320,2013-12-04 20:20:00
1:53 PM,5.0,-4.0,66,30.14,9.0,NW,17.3,26.5,0.00,,Overcast,320,2013-12-04 20:53:00
2:53 PM,5.0,-5.1,63,30.16,10.0,NW,15.0,24.2,N/A,,Clear,320,2013-12-04 21:53:00
3:53 PM,3.9,-7.1,60,30.19,8.0,NNW,19.6,31.1,N/A,,Clear,330,2013-12-04 22:53:00
4:53 PM,1.9,-9.0,60,30.22,10.0,NW,12.7,23.0,N/A,,Clear,320,2013-12-04 23:53:00
5:53 PM,1.0,-9.0,63,30.25,10.0,NW,19.6,27.6,N/A,,Clear,310,2013-12-05 00:53:00
6:53 PM,-0.0,-9.9,63,30.29,10.0,NNW,12.7,-,N/A,,Clear,330,2013-12-05 01:53:00
7:53 PM,-0.0,-9.9,63,30.31,10.0,NNW,9.2,19.6,N/A,,Clear,340,2013-12-05 02:53:00
8:53 PM,-2.9,-11.0,68,30.33,10.0,NW,9.2,-,N/A,,Clear,310,2013-12-05 03:53:00
9:53 PM,-5.1,-11.9,72,30.36,10.0,South,3.5,-,N/A,,Clear,170,2013-12-05 04:53:00
10:53 PM,-4.0,-11.9,69,30.35,10.0,NW,9.2,-,N/A,,Clear,310,2013-12-05 05:53:00
11:53 PM,-7.1,-13.0,75,30.38,10.0,WSW,4.6,-,N/A,,Clear,250,2013-12-05 06:53:00